Preview of NWS' New Version of Forecast
This preview is not operational and should not be used for support decisions.

Regional Weather Roundup (RWR)

Issued by Philadelphia/Mt Holly (PHI)

                            
000
ASUS41 KPHI 181411
RWRPHI

REGIONAL WEATHER ROUNDUP
NATIONAL WEATHER SERVICE MOUNT HOLLY NJ
900 AM EST FRI JAN 18 2019

NOTE:  "FAIR" INDICATES FEW OR NO CLOUDS BELOW 12,000 FEET WITH NO
SIGNIFICANT WEATHER AND/OR OBSTRUCTIONS TO VISIBILITY.

 * = STATION DOES NOT REPORT PRECIPITATION (E.G. RAIN, SNOW, ETC.) 
        OR FOG.

NJZ015>026-181500-
SOUTHERN NEW JERSEY
  
CITY           SKY/WX    TMP DP  RH WIND       PRES   REMARKS
POMONA         CLOUDY    34  34 100 E5        30.08F FOG     WCI  30  
WILDWOOD*      CLOUDY    36  35  96 NE5       30.09S WCI  32          
MILLVILLE      CLOUDY    33  32  96 CALM      30.08S FOG              
WRIGHTSTOWN    FLURRIES  32  31  97 CALM      30.07R                  
MOUNT HOLLY    LGT SNOW  31  28  89 CALM      30.10R FOG              
TRENTON        LGT SNOW  31  29  92 NE5       30.09S FOG     WCI  26  

$$
NJZ001>014-181500-
NORTHERN NEW JERSEY
  
CITY           SKY/WX    TMP DP  RH WIND       PRES   REMARKS
SUSSEX         MIX PCPN  25  22  88 CALM      30.09R                  
ANDOVER*         N/A     25  22  88 CALM      30.09R                  
MORRISTOWN     LGT SNOW  28  27  93 CALM      30.12R                  
NEWARK         LGT SNOW  30  28  92 NE7       30.12R FOG     WCI  23  
TETERBORO      LGT SNOW  30  27  88 NE8       30.11R FOG     WCI  22  
CALDWELL       LGT SNOW  28  26  92 CALM      30.12R FOG              
SOMERVILLE     LGT SNOW  29  26  89 N5        30.09F FOG     WCI  24  
ALLAIRE*       LGT RAIN  33  32  96 N3        30.11S FOG              
TOMS RIVER*    LGT RAIN  34  34 100 NE3       30.10F FOG              

$$
PAZ043-044-047-054-055-060>062-066>071-181500-
EASTERN PENNSYLVANIA
  
CITY           SKY/WX    TMP DP  RH WIND       PRES   REMARKS
PHILADELPHIA   CLOUDY    32  29  88 NE6       30.11R FOG     WCI  26  
NORTH PHILA    CLOUDY    33  28  81 NE3       30.11R HAZE             
BLUE BELL*     CLOUDY    28  28 100 CALM      30.11R                  
DOYLESTOWN     CLOUDY    28  25  88 NE5       30.08R WCI  23          
QUAKERTOWN*    CLOUDY    28  27  93 CALM      30.08                   
PERKASIE*      CLOUDY    27  27 100 NE5       30.08S WCI  21          
POTTSTOWN      CLOUDY    27  25  92 CALM      30.11R FOG              
LANCASTER      CLOUDY    31  27  85 NE3       30.09R FOG              
COATESVILLE    FOG       28  28 100 CALM      30.08R VSB 1/2          
READING        CLOUDY    29  28  96 CALM      30.08S                  
ALLENTOWN      CLOUDY    29  24  82 NE5       30.09S WCI  24          
MOUNT POCONO   FLURRIES  23  23 100 SE3       29.99S                  
HAZLETON       LGT SNOW N/A N/A N/A SE6       30.03S                  
LEHIGHTON      CLOUDY    30  27  86 CALM      30.09S                  
WILKES BARRE   CLOUDY    27  25  92 N3        30.03S FOG              

$$
DEZALL-MDZ008-012-015-019-020-181500-
DELAWARE AND EASTERN MARYLAND
  
CITY           SKY/WX    TMP DP  RH WIND       PRES   REMARKS
WILMINGTON     CLOUDY    32  31  96 NE6       30.11R FOG     WCI  26  
DOVER          CLOUDY    34  34  99 CALM      30.08S FOG              
GEORGETOWN     CLOUDY    39  36  89 NE3       30.08S FOG              
EASTON         CLOUDY    34  34 100 CALM      30.12S FOG              
ABERDEEN       FOG       30  30 100 CALM      30.10R VSB 1            
PATUXENT       FAIR      37  36  96 CALM      30.09  FOG              
OCEAN CITY     CLOUDY    41  40  96 CALM      30.08R                  
WALLOPS ISLAND CLOUDY    44  37  76 W6        30.08S                  
SALISBURY      CLOUDY    39  38  96 CALM      30.07S                  

$$
PAZ001-021-NYZ056-072-MDZ011-DCZ001-181500-
OTHER NEARBY LOCATIONS
  
CITY           SKY/WX    TMP DP  RH WIND       PRES   REMARKS
HARRISBURG     LGT SNOW  28  24  85 CALM      30.09R FOG              
STATE COLLEGE  LGT SNOW  27  27 100 W3        30.02R                  
WILLIAMSPORT   LGT SNOW  28  24  85 SE5       30.06R FOG     WCI  23  
BINGHAMTON     LGT SNOW  24  22  91 S7        29.96R VSB 3/4 WCI  16  
NEW YORK CITY  LGT SNOW  33  31  92 MISG      30.13R FOG              
BALTIMORE      FOG       33  32  96 CALM      30.09R VSB 1/2          
WASHINGTON DC  CLOUDY    35  32  88 E3        30.11R FOG              

$$